�������l�o���
Date,Time,MP-1(��Sv/h),MP-2(��Sv/h),MP-3(��Sv/h),MP-4(��Sv/h),MP-5(��Sv/h),MP-6(��Sv/h),MP-7(��Sv/h),MP-8(��Sv/h),����,����(m/s),���J
2013/02/23,00:00,3.1,5.6,6.6,6.1,6.3,2.7,6.5,4.1,���쐼,8.6,��
2013/02/23,00:10,3.1,5.6,6.6,6.1,6.3,2.7,6.5,4.1,���쐼,8.9,�L
2013/02/23,00:20,3.1,5.6,6.6,6.1,6.3,2.7,6.5,4.1,���쐼,8.8,�L
2013/02/23,00:30,3.1,5.6,6.6,6.1,6.3,2.7,6.5,4.1,��,9.4,�L
2013/02/23,00:40,3.1,5.6,6.6,6.1,6.3,2.7,6.5,4.1,���쐼,10.2,��
2013/02/23,00:50,3.1,5.6,6.6,6.1,6.3,2.7,6.5,4.1,���쐼,9.7,��
2013/02/23,01:00,3.1,5.6,6.6,6.1,6.3,2.7,6.5,4.1,���쐼,9.3,��
2013/02/23,01:10,3.1,5.6,6.6,6.1,6.3,2.7,6.5,4.1,��,10.2,��
2013/02/23,01:20,3.1,5.6,6.6,6.1,6.3,2.7,6.5,4.1,��,10.1,��
2013/02/23,01:30,3.1,5.6,6.6,6.1,6.3,2.7,6.5,4.1,���쐼,10.1,��
2013/02/23,01:40,3.1,5.6,6.6,6.1,6.3,2.7,6.5,4.1,��,8.9,��
2013/02/23,01:50,3.1,5.6,6.6,6.1,6.3,2.7,6.5,4.1,��,10.8,�L
2013/02/23,02:00,3.1,5.6,6.6,6.1,6.3,2.7,6.5,4.1,��,10.2,�L
2013/02/23,02:10,3.1,5.6,6.6,6.1,6.3,2.7,6.5,4.1,��,11.0,�L
2013/02/23,02:20,3.1,5.6,6.6,6.1,6.2,2.7,6.5,4.1,���쐼,12.4,�L
2013/02/23,02:30,3.1,5.6,6.6,6.1,6.2,2.7,6.4,4.1,���쐼,14.1,�L
2013/02/23,02:40,3.1,5.6,6.6,6.1,6.2,2.7,6.4,4.1,���쐼,12.4,�L
2013/02/23,02:50,3.1,5.6,6.5,6.1,6.2,2.7,6.4,4.1,���쐼,10.4,�L
2013/02/23,03:00,3.1,5.6,6.6,6.1,6.2,2.7,6.4,4.1,���쐼,12.7,��
2013/02/23,03:10,3.1,5.6,6.6,6.1,6.2,2.7,6.4,4.1,���쐼,11.3,��
2013/02/23,03:20,3.1,5.6,6.6,6.1,6.2,2.7,6.4,4.1,��,12.7,��
2013/02/23,03:30,3.1,5.6,6.6,6.1,6.2,2.7,6.4,4.1,��,10.4,��
2013/02/23,03:40,3.1,5.6,6.6,6.1,6.2,2.7,6.4,4.1,���k��,9.9,�L
2013/02/23,03:50,3.1,5.6,6.5,6.1,6.2,2.7,6.4,4.1,���k��,11.3,�L
2013/02/23,04:00,3.1,5.6,6.5,6.1,6.2,2.7,6.4,4.1,�k��,9.9,��
2013/02/23,04:10,3.1,5.6,6.5,6.1,6.2,2.7,6.4,4.1,�k��,11.0,��
2013/02/23,04:20,3.1,5.6,6.5,6.1,6.2,2.7,6.5,4.1,���k��,9.7,�L
2013/02/23,04:30,3.1,5.6,6.5,6.1,6.2,2.7,6.4,4.1,�k��,8.8,�L
2013/02/23,04:40,3.1,5.6,6.5,6.1,6.2,2.7,6.4,4.1,���k��,8.9,�L
2013/02/23,04:50,3.1,5.5,6.5,6.0,6.2,2.7,6.4,4.1,�k��,6.4,�L
2013/02/23,05:00,3.1,5.5,6.5,6.0,6.2,2.7,6.4,4.1,�k��,6.0,�L
2013/02/23,05:10,3.1,5.5,6.5,6.0,6.2,2.7,6.4,4.1,�k��,6.3,��
2013/02/23,05:20,3.1,5.5,6.5,6.0,6.2,2.7,6.4,4.1,�k��,5.1,��
2013/02/23,05:30,3.1,5.5,6.5,6.0,6.2,2.7,6.4,4.0,�k��,4.9,��
2013/02/23,05:40,3.1,5.5,6.5,6.0,6.2,2.7,6.4,4.1,�k�k��,4.0,��
2013/02/23,05:50,3.1,5.5,6.5,6.0,6.2,2.7,6.4,4.1,�k�k��,4.9,��
2013/02/23,06:00,3.1,5.5,6.5,6.0,6.2,2.7,6.4,4.0,�k�k��,4.2,��
2013/02/23,06:10,3.1,5.5,6.5,6.0,6.2,2.7,6.4,4.1,�k�k��,4.4,��
2013/02/23,06:20,3.1,5.5,6.5,6.0,6.2,2.7,6.4,4.0,�k,3.6,��
2013/02/23,06:30,3.1,5.5,6.5,6.0,6.2,2.7,6.4,4.1,�k,3.2,��
2013/02/23,06:40,3.1,5.5,6.5,6.0,6.1,2.7,6.4,4.0,�k,0.7,��
2013/02/23,06:50,3.1,5.5,6.5,6.0,6.2,2.7,6.4,4.0,�k��,1.2,��
2013/02/23,07:00,3.1,5.5,6.5,6.0,6.1,2.7,6.4,4.0,�쐼,1.3,��
2013/02/23,07:10,3.1,5.5,6.5,6.0,6.2,2.7,6.4,4.0,��,1.5,�L
2013/02/23,07:20,3.1,5.5,6.5,6.0,6.2,2.7,6.4,4.0,���k��,3.0,�L
2013/02/23,07:30,3.1,5.5,6.5,6.0,6.2,2.7,6.4,4.0,���k��,3.8,�L
2013/02/23,07:40,3.1,5.5,6.5,6.0,6.2,2.7,6.4,4.0,���k��,5.3,��
2013/02/23,07:50,3.1,5.5,6.5,6.0,6.2,2.7,6.4,4.0,�k��,4.9,��
2013/02/23,08:00,3.1,5.5,6.5,6.0,6.2,2.7,6.4,4.0,�k�k��,3.1,��
2013/02/23,08:10,3.1,5.5,6.5,6.0,6.2,2.7,6.4,4.0,�k,5.2,�L
2013/02/23,08:20,3.1,5.5,6.5,6.0,6.2,2.7,6.4,4.0,�k�k��,3.3,��
2013/02/23,08:30,3.1,5.5,6.5,6.0,6.2,2.7,6.4,4.1,�k,3.3,��
2013/02/23,08:40,3.1,5.5,6.5,6.0,6.2,2.7,6.4,4.0,���쓌,1.4,��
2013/02/23,08:50,3.1,5.5,6.5,6.0,6.2,2.7,6.4,4.0,��쓌,1.1,��
2013/02/23,09:00,3.1,5.5,6.5,6.0,6.2,2.7,6.4,4.1,��,2.7,��
2013/02/23,09:10,3.1,5.5,6.5,6.0,6.2,2.7,6.4,4.1,�k��,3.8,��
2013/02/23,09:20,3.1,5.5,6.5,6.0,6.2,2.7,6.4,4.1,���k��,2.9,��
2013/02/23,09:30,3.1,5.5,6.5,6.0,6.2,2.7,6.4,4.1,�k��,3.6,��
2013/02/23,09:40,-,5.6,6.5,6.0,6.2,2.7,6.4,4.1,�k��,4.3,��
2013/02/23,09:50,-,5.6,6.5,6.0,6.2,2.7,6.5,4.1,�k��,4.7,��
2013/02/23,10:00,-,5.6,6.5,6.0,6.2,2.7,6.5,4.1,�k��,4.9,��
2013/02/23,10:10,-,5.6,6.5,6.0,6.2,2.7,6.5,4.1,�k�k��,4.1,��
2013/02/23,10:20,-,5.6,6.5,6.0,6.2,2.7,6.5,4.1,���k��,3.8,��
2013/02/23,10:30,-,5.6,6.5,6.0,6.2,2.7,6.5,4.1,�k��,4.1,��
2013/02/23,10:40,-,5.6,6.5,6.0,6.2,2.7,6.5,4.1,�k��,4.4,��
2013/02/23,10:50,-,5.6,6.6,6.0,6.2,2.7,6.5,4.1,�k��,4.6,��
2013/02/23,11:00,-,5.6,6.6,6.0,6.2,2.7,6.5,4.1,�k�k��,4.6,��
2013/02/23,11:10,-,5.6,6.6,6.1,6.2,2.7,6.5,4.1,�k�k��,4.9,��
2013/02/23,11:20,-,5.6,6.6,6.1,6.2,2.7,6.5,4.1,�k�k��,5.0,��
2013/02/23,11:30,-,5.6,6.6,6.1,6.2,2.7,6.5,4.1,�k,3.8,��
2013/02/23,11:40,-,5.6,6.6,6.1,6.2,2.7,6.5,4.1,�k,5.1,��
2013/02/23,11:50,-,5.6,6.6,6.1,6.2,2.7,6.5,4.1,�k,4.6,��
2013/02/23,12:00,-,5.6,6.6,6.1,6.2,2.7,6.5,4.1,�k,4.5,��
2013/02/23,12:10,-,5.6,6.6,6.1,6.3,2.7,6.5,4.1,�k��,5.2,��
2013/02/23,12:20,-,5.6,6.6,6.1,6.3,2.7,6.5,4.1,�k�k��,5.0,��
2013/02/23,12:30,-,5.6,6.6,6.1,6.3,2.7,6.5,4.1,���k��,4.9,��
2013/02/23,12:40,-,5.6,6.6,6.1,6.3,2.7,6.5,4.1,��,4.2,��
2013/02/23,12:50,-,5.6,6.6,6.1,6.3,2.7,6.5,4.1,���쐼,6.3,��
2013/02/23,13:00,3.1,5.6,6.6,6.1,6.3,2.8,6.5,4.1,�쐼,5.8,��
2013/02/23,13:10,3.1,5.6,6.6,6.1,6.3,2.8,6.5,4.1,���쐼,6.5,��
2013/02/23,13:20,3.1,5.6,6.6,6.1,6.3,2.8,6.5,4.1,���k��,3.2,��
2013/02/23,13:30,3.1,5.6,6.6,6.1,6.3,2.8,6.5,4.1,�k��,3.9,��
2013/02/23,13:40,3.1,5.6,6.6,6.1,6.3,2.8,6.5,4.1,�k�k��,3.4,��
2013/02/23,13:50,3.1,5.6,6.6,6.1,6.3,2.8,6.5,4.1,�k�k��,4.6,��
2013/02/23,14:00,3.1,5.6,6.6,6.1,6.3,2.8,6.5,4.1,�k,3.4,��
2013/02/23,14:10,3.1,5.6,6.6,6.1,6.3,2.8,6.5,4.1,�k�k��,4.3,��
2013/02/23,14:20,3.1,5.6,6.6,6.1,6.3,2.8,6.5,4.1,���k��,3.1,��
2013/02/23,14:30,3.1,5.6,6.6,6.1,6.3,2.8,6.5,4.1,��,1.9,��
2013/02/23,14:40,3.1,5.6,6.6,6.1,6.3,2.8,6.5,4.1,���k��,4.9,��
2013/02/23,14:50,3.1,5.6,6.6,6.1,6.3,2.8,6.5,4.1,�k��,1.7,��
2013/02/23,15:00,3.1,5.6,6.6,6.1,6.3,2.8,6.5,4.1,���k��,5.5,��
2013/02/23,15:10,3.1,5.6,6.6,6.1,6.3,2.8,6.5,4.1,�k�k��,3.3,��
2013/02/23,15:20,3.1,5.6,6.6,6.1,6.3,2.8,6.5,4.1,�k�k��,3.0,��
2013/02/23,15:30,3.1,5.6,6.6,6.1,6.3,2.8,6.5,4.1,�k��,4.0,��
2013/02/23,15:40,3.1,5.6,6.6,6.1,6.3,2.8,6.5,4.1,�k�k��,1.3,��
2013/02/23,15:50,3.1,5.6,6.6,6.1,6.3,2.8,6.5,4.1,�k�k��,2.1,��
2013/02/23,16:00,3.1,5.6,6.6,6.1,6.3,2.8,6.5,4.1,�k��,1.7,��
2013/02/23,16:10,3.1,5.6,6.6,6.1,6.3,2.8,6.5,4.1,��,2.4,��
2013/02/23,16:20,3.1,5.6,6.6,6.1,6.3,2.8,6.5,4.1,��,4.4,��
2013/02/23,16:30,3.1,5.6,6.6,6.1,6.3,2.8,6.5,4.1,���쐼,7.4,��
2013/02/23,16:40,3.1,5.6,6.6,6.1,6.3,2.8,6.5,4.1,���쐼,7.9,��
2013/02/23,16:50,3.1,5.6,6.6,6.1,6.3,2.8,6.5,4.1,���쐼,7.1,��
2013/02/23,17:00,3.1,5.6,6.6,6.1,6.3,2.8,6.5,4.1,���쐼,8.8,��
2013/02/23,17:10,3.1,5.6,6.6,6.1,6.3,2.8,6.5,4.1,���쐼,7.8,��
2013/02/23,17:20,3.1,5.6,6.6,6.1,6.3,2.8,6.5,4.1,��,6.3,��
2013/02/23,17:30,3.1,5.6,6.6,6.1,6.3,2.8,6.5,4.1,���쐼,6.0,��
2013/02/23,17:40,3.1,5.6,6.6,6.1,6.3,2.8,6.5,4.1,���쐼,6.8,��
2013/02/23,17:50,3.1,5.6,6.6,6.1,6.3,2.8,6.5,4.1,��,9.4,��
2013/02/23,18:00,3.1,5.6,6.6,6.1,6.3,2.8,6.5,4.1,��,9.3,��
2013/02/23,18:10,3.1,5.6,6.6,6.1,6.3,2.8,6.5,4.1,��,8.8,��
2013/02/23,18:20,3.1,5.6,6.6,6.1,6.3,2.8,6.5,4.1,���쐼,9.7,��
2013/02/23,18:30,3.1,5.6,6.6,6.1,6.3,2.8,6.5,4.1,��,7.7,��
2013/02/23,18:40,3.1,5.6,6.6,6.1,6.3,2.8,6.5,4.1,��,6.5,��
2013/02/23,18:50,3.1,5.6,6.6,6.1,6.3,2.8,6.5,4.1,��,5.1,��
2013/02/23,19:00,3.1,5.6,6.6,6.1,6.3,2.8,6.5,4.1,��,6.0,��
2013/02/23,19:10,3.1,5.6,6.6,6.1,6.3,2.8,6.5,4.1,��,7.4,��
2013/02/23,19:20,3.1,5.6,6.6,6.1,6.3,2.8,6.5,4.1,��,7.2,��
2013/02/23,19:30,3.1,5.6,6.6,6.1,6.3,2.8,6.5,4.1,��,6.8,��
2013/02/23,19:40,3.1,5.6,6.6,6.1,6.3,2.8,6.5,4.1,��,4.6,��
2013/02/23,19:50,3.1,5.6,6.6,6.1,6.3,2.8,6.5,4.1,��,4.2,��
2013/02/23,20:00,3.1,5.6,6.6,6.1,6.3,2.8,6.5,4.1,���k��,4.3,��
2013/02/23,20:10,3.1,5.6,6.6,6.1,6.3,2.8,6.5,4.1,���k��,4.4,��
2013/02/23,20:20,3.1,5.6,6.6,6.1,6.3,2.8,6.5,4.1,���k��,4.6,��
2013/02/23,20:30,3.1,5.6,6.6,6.1,6.3,2.8,6.5,4.1,���k��,5.5,��
2013/02/23,20:40,3.1,5.6,6.6,6.1,6.3,2.8,6.5,4.1,���k��,4.7,��
2013/02/23,20:50,3.1,5.6,6.6,6.1,6.3,2.8,6.5,4.1,���k��,4.7,��
2013/02/23,21:00,3.1,5.6,6.6,6.1,6.3,2.8,6.5,4.1,���k��,4.5,��
2013/02/23,21:10,3.1,5.6,6.6,6.1,6.3,2.8,6.5,4.1,��,2.3,��
2013/02/23,21:20,3.1,5.6,6.6,6.1,6.3,2.8,6.5,4.1,��,3.4,��
2013/02/23,21:30,3.1,5.6,6.6,6.1,6.3,2.8,6.5,4.1,��,2.2,��
2013/02/23,21:40,3.1,5.6,6.6,6.1,6.3,2.8,6.5,4.1,���k��,2.9,��
2013/02/23,21:50,3.1,5.6,6.6,6.1,6.3,2.8,6.5,4.1,�k��,2.9,��
2013/02/23,22:00,3.1,5.6,6.6,6.1,6.3,2.8,6.5,4.1,���k��,0.7,��
2013/02/23,22:10,3.1,5.6,6.6,6.1,6.3,2.8,6.5,4.1,�k�k��,1.4,��
2013/02/23,22:20,3.1,5.6,6.6,6.1,6.3,2.8,6.5,4.1,-,CALM,��
2013/02/23,22:30,3.1,5.6,6.6,6.1,6.2,2.8,6.5,4.1,���k��,1.5,��
2013/02/23,22:40,3.1,5.6,6.6,6.1,6.2,2.8,6.5,4.1,���쐼,1.6,��
2013/02/23,22:50,3.1,5.6,6.6,6.1,6.2,2.8,6.5,4.1,��,2.4,��
2013/02/23,23:00,3.1,5.6,6.6,6.1,6.2,2.8,6.5,4.1,��,3.2,��
2013/02/23,23:10,3.1,5.6,6.6,6.1,6.3,2.8,6.5,4.1,��,4.5,��
2013/02/23,23:20,3.1,5.6,6.6,6.1,6.3,2.8,6.5,4.1,���k��,4.2,��
2013/02/23,23:30,3.1,5.6,6.6,6.1,6.3,2.8,6.5,4.1,���k��,4.7,��
2013/02/23,23:40,3.1,5.6,6.6,6.1,6.3,2.8,6.5,4.1,���k��,5.3,��
2013/02/23,23:50,3.1,5.6,6.6,6.1,6.2,2.8,6.5,4.1,���k��,6.3,��
